Location: Grust
(42.8833°N, 0.0333°W)
Time: 14:41:23
(UTC+00:00)

CZ-4C R/B - Pass Details

Date: 25 October 2020
Orbit: 624 x 1378 km, 63.4° (Epoch: 24 November)

Event Time Altitude Azimuth Distance (km) Brightness Sun altitude
Rises 20:02:54 0° 326° (NW) 3,729 6.2 -33.7°
Reaches altitude 10° 20:05:42 10° 337° (NNW) 2,895 5.4 -34.1°
Enters shadow 20:09:43 27° 9° (N) 2,051 4.2 -34.9°
